Home > Weather > Raufoss > Past weeks

Flag for Norway Past Weather in Raufoss, Norway — Yesterday and Last 2 Weeks

Now
75 °F

Mild.


Feels Like: 77 °F
Forecast: 47 / 77 °F
Wind: 3 mph from South

Location: Lillehammer-Saetherengen

Current Time: May 31, 2016 at 6:17:08 PM

Latest Report: May 31, 2016 at 5:00 PM


Visibility: N/A

Pressure: 30.14 "Hg

Humidity: 34%

Dew Point: 45 °F

Location of RaufossLocation

Past Weather in Raufoss — Graph

°F

Raufoss Temperature Yesterday

Maximum temperature yesterday: 62 °F (at 8:00 PM)
Minimum temperature yesterday: 52 °F (at 8:00 AM)
Average temperature yesterday: 54 °F

High & Low Weather Summary for the Past Weeks

 TemperatureHumidityPressure
High73 °F (May 31, 3:00 PM)96% (May 19, 7:00 AM)30.24 "Hg (May 19, 7:00 AM)
Low38 °F (May 17, 5:00 AM)20% (May 16, 7:00 PM)29.61 "Hg (May 17, 7:00 PM)
Average52 °F70%29.94 "Hg
* Reported May 16 3:00 PM — May 31 3:00 PM, Raufoss, Weather by CustomWeather, © 2016

Note: Actual official high and low records may vary slightly from our data, if they occured in-between our weather recording intervals... More about our weather records

Advertising

Raufoss Weather History for the Previous 24 Hours

Scroll right to see more
 ConditionsComfort  
Time TempWeatherWind HumidityBarometerVisibility
3:00 PM
Tue, May 31
73 °FMild.3 mph38%30.16 "HgN/A
2:00 PM71 °FMild.3 mph52%30.17 "HgN/A
12:00 PM69 °FMild.2 mph59%30.19 "HgN/A
11:00 AM66 °FMild.2 mph63%30.20 "HgN/A
10:00 AM63 °FMild.2 mph67%30.21 "HgN/A
9:00 AM60 °FCool.No wind79%30.22 "HgN/A
8:00 AM56 °FCool.1 mph85%30.23 "HgN/A
6:00 AM51 °FCool.1 mph94%30.24 "HgN/A
5:00 AM50 °FCool.No wind94%30.24 "HgN/A
3:00 AM53 °FCool.1 mph92%30.22 "HgN/A
2:00 AM54 °FCool.1 mph92%30.22 "HgN/A
1:00 AM56 °FCool.1 mph91%30.21 "HgN/A
12:00 AM57 °FCool.1 mph89%30.20 "HgN/A
11:00 PM
Mon, May 30
57 °FCool.1 mph87%30.19 "HgN/A
10:00 PM58 °FCool.1 mph85%30.17 "HgN/A
9:00 PM60 °FCool.2 mph80%30.16 "HgN/A
8:00 PM62 °FCool.2 mph77%30.16 "HgN/A
Weather by CustomWeather, © 2016

See weather overviewHow to use our weather pages